Overview Statistics Trail Chart Weather Telemetry Raw packets
 

This is the latest recevied weather packets stored in our database for station/object W5ADC. If no packets are shown the sender has not sent any weather packets the latest 10 day(s).

<< 102 103 104 105 106 107 108 >>
Time Temp. Humidity Pressure Rain* Wind** Luminosity Snow
1787841475 28.33° C 74% 1012.3 hPa 0 mm - 318 W/m² -
1787841168 28.33° C 74% 1012.7 hPa 0 mm - 298 W/m² -
1787840863 27.78° C 75% 1012.6 hPa 0 mm - 314 W/m² -
1787840558 27.78° C 76% 1012.4 hPa 0 mm - 267 W/m² -
1787840253 27.78° C 76% 1012.6 hPa 0 mm - 259 W/m² -
1787839953 27.78° C 76% 1012.4 hPa 0 mm - 243 W/m² -
1787839648 26.67° C 77% 1012.5 hPa 0 mm - 229 W/m² -
1787839343 27.78° C 76% 1012.5 hPa 0 mm - 216 W/m² -
1787839042 27.22° C 77% 1012.2 hPa 0 mm - 202 W/m² -
1787838741 27.22° C 77% 1012.3 hPa 0 mm - 185 W/m² -
1787838440 27.22° C 77% 1012.2 hPa 0 mm - 173 W/m² -
1787838135 26.67° C 78% 1012.2 hPa 0 mm - 158 W/m² -
1787837829 26.67° C 79% 1012.3 hPa 0 mm - 147 W/m² -
1787837524 26.67° C 79% 1012.4 hPa 0 mm - 136 W/m² -
1787837224 26.11° C 80% 1012.3 hPa 0 mm - 121 W/m² -
1787836923 26.11° C 81% 1012.1 hPa 0 mm - 62 W/m² -
1787836618 26.11° C 81% 1012 hPa 0 mm - 58 W/m² -
1787836318 25.56° C 81% 1012.1 hPa 0 mm - 57 W/m² -
1787836014 25.56° C 81% 1012 hPa 0 mm - 52 W/m² -
1787835709 25.56° C 82% 1011.8 hPa 0 mm - 49 W/m² -
1787835404 25.56° C 82% 1011.8 hPa 0 mm - 46 W/m² -
1787835099 25.56° C 82% 1011.8 hPa 0 mm - 43 W/m² -
1787834797 25.56° C 81% 1011.8 hPa 0 mm - 39 W/m² -
1787834492 25.56° C 81% 1011.7 hPa 0 mm - 36 W/m² -
1787834188 25.56° C 81% 1011.8 hPa 0 mm - 32 W/m² -

* Rain latest hour (hover to see other rain measurements)
** Current wind speed in m/s (hover to see current wind gust speed)